�_�ʐ�͌���@�Y���u�C�̈ړ���,,,,,,,,,,,,
�@,Time,Time int.,,Lat.,,Long.,,Distance,,Direction,Speed,
Date(yy/mm/dd),(hh:mm),(hour),(min),(deg),(min),(deg),(min),(miles),(meter),(deg),(m/s),(knots)
2004/6/24,9:35,,,36,46.008 ,137,13.434 ,,,,,
2004/6/24,9:40,0,5,36,46.032 ,137,13.404 ,0.04 ,71.15 ,308.7 ,0.24 ,0.46 
2004/6/24,9:45,0,5,36,46.080 ,137,13.380 ,0.05 ,99.39 ,333.4 ,0.33 ,0.64 
2004/6/24,9:50,0,5,36,46.080 ,137,13.320 ,0.06 ,111.12 ,270.0 ,0.37 ,0.72 
2004/6/24,9:55,0,5,36,46.080 ,137,13.278 ,0.04 ,77.78 ,270.0 ,0.26 ,0.50 
2004/6/24,10:00,0,5,36,46.140 ,137,13.206 ,0.09 ,173.57 ,309.8 ,0.58 ,1.12 
2004/6/24,10:05,0,5,36,46.146 ,137,13.146 ,0.06 ,111.67 ,275.7 ,0.37 ,0.72 
2004/6/24,10:10,0,5,36,46.164 ,137,13.080 ,0.07 ,126.70 ,285.3 ,0.42 ,0.82 
2004/6/24,10:15,0,5,36,46.176 ,137,13.014 ,0.07 ,124.24 ,280.3 ,0.41 ,0.80 
2004/6/24,10:20,0,5,36,46.182 ,137,12.948 ,0.07 ,122.74 ,275.2 ,0.41 ,0.80 
2004/6/24,10:25,0,5,36,46.188 ,137,12.882 ,0.07 ,122.74 ,275.2 ,0.41 ,0.80 
2004/6/24,10:30,0,5,36,46.206 ,137,12.816 ,0.07 ,126.70 ,285.3 ,0.42 ,0.82 
2004/6/24,10:35,0,5,36,46.218 ,137,12.768 ,0.05 ,91.63 ,284.0 ,0.31 ,0.59 
2004/6/24,10:40,0,5,36,46.236 ,137,12.726 ,0.05 ,84.63 ,293.2 ,0.28 ,0.55 
2004/6/24,10:45,0,5,36,46.248 ,137,12.678 ,0.05 ,91.63 ,284.0 ,0.31 ,0.59 
2004/6/24,10:50,0,5,36,46.266 ,137,12.630 ,0.05 ,94.94 ,290.6 ,0.32 ,0.62 
2004/6/24,10:55,0,5,36,46.266 ,137,12.570 ,0.06 ,111.12 ,270.0 ,0.37 ,0.72 
2004/6/24,11:00,0,5,36,46.296 ,137,12.528 ,0.05 ,95.59 ,305.5 ,0.32 ,0.62 
2004/6/24,11:05,0,5,36,46.296 ,137,12.474 ,0.05 ,100.01 ,270.0 ,0.33 ,0.65 
2004/6/24,11:10,0,5,36,46.308 ,137,12.426 ,0.05 ,91.63 ,284.0 ,0.31 ,0.59 
2004/6/24,11:15,0,5,36,46.332 ,137,12.378 ,0.05 ,99.39 ,296.6 ,0.33 ,0.64 
2004/6/24,11:20,0,5,36,46.332 ,137,12.342 ,0.04 ,66.67 ,270.0 ,0.22 ,0.43 
2004/6/24,11:25,0,5,36,46.350 ,137,12.300 ,0.05 ,84.63 ,293.2 ,0.28 ,0.55 
2004/6/24,11:30,0,5,36,46.374 ,137,12.246 ,0.06 ,109.44 ,294.0 ,0.36 ,0.71 
2004/6/24,11:35,0,5,36,46.392 ,137,12.204 ,0.05 ,84.63 ,293.2 ,0.28 ,0.55 
2004/6/24,11:40,0,5,36,46.398 ,137,12.150 ,0.05 ,100.62 ,276.3 ,0.34 ,0.65 
2004/6/24,11:45,0,5,36,46.422 ,137,12.102 ,0.05 ,99.39 ,296.6 ,0.33 ,0.64 
2004/6/24,11:50,0,5,36,46.434 ,137,12.048 ,0.06 ,102.45 ,282.5 ,0.34 ,0.66 
2004/6/24,11:55,0,5,36,46.416 ,137,12.012 ,0.04 ,74.54 ,243.4 ,0.25 ,0.48 
2004/6/24,12:00,0,5,36,46.428 ,137,11.958 ,0.06 ,102.45 ,282.5 ,0.34 ,0.66 
,,,,,,,,,,,,
,,,,,,,,,,,,
�A,Time,Time int.,,Lat.,,Long.,,Distance,,Direction,Speed,
Date(yy/mm/dd),(hh:mm),(hour),(min),(deg),(min),(deg),(min),(miles),(meter),(deg),(m/s),(knots)
2004/6/24,13:10,,,36,46.038 ,137,13.308 ,,,,,
2004/6/24,13:15,0,5,36,46.056 ,137,13.254 ,0.06 ,105.42 ,288.4 ,0.35 ,0.68 
2004/6/24,13:20,0,5,36,46.074 ,137,13.212 ,0.05 ,84.63 ,293.2 ,0.28 ,0.55 
2004/6/24,13:25,0,5,36,46.074 ,137,13.146 ,0.07 ,122.23 ,270.0 ,0.41 ,0.79 
2004/6/24,13:30,0,5,36,46.080 ,137,13.092 ,0.05 ,100.62 ,276.3 ,0.34 ,0.65 
2004/6/24,13:35,0,5,36,46.080 ,137,13.044 ,0.05 ,88.90 ,270.0 ,0.30 ,0.58 
2004/6/24,13:40,0,5,36,46.068 ,137,12.996 ,0.05 ,91.63 ,256.0 ,0.31 ,0.59 
2004/6/24,13:45,0,5,36,46.050 ,137,12.954 ,0.05 ,84.63 ,246.8 ,0.28 ,0.55 
2004/6/24,13:50,0,5,36,46.032 ,137,12.924 ,0.03 ,64.79 ,239.0 ,0.22 ,0.42 
2004/6/24,13:55,0,5,36,46.026 ,137,12.864 ,0.06 ,111.67 ,264.3 ,0.37 ,0.72 
2004/6/24,14:00,0,5,36,46.008 ,137,12.834 ,0.03 ,64.79 ,239.0 ,0.22 ,0.42 
2004/6/24,14:05,0,5,36,45.990 ,137,12.798 ,0.04 ,74.54 ,243.4 ,0.25 ,0.48 
2004/6/24,14:15,0,10,36,45.966 ,137,12.732 ,0.07 ,130.06 ,250.0 ,0.22 ,0.42 
2004/6/24,14:20,0,5,36,45.948 ,137,12.702 ,0.03 ,64.79 ,239.0 ,0.22 ,0.42 
2004/6/24,14:25,0,5,36,45.948 ,137,12.672 ,0.03 ,55.56 ,270.0 ,0.19 ,0.36 
2004/6/24,14:30,0,5,36,45.960 ,137,12.660 ,0.02 ,31.43 ,315.0 ,0.10 ,0.20 

,,,,,,,,,,,,
�B,Time,Time int.,,Lat.,,Long.,,Distance,,Direction,Speed,
Date(yy/mm/dd),(hh:mm),(hour),(min),(deg),(min),(deg),(min),(miles),(meter),(deg),(m/s),(knots)
2004/6/24,9:35,,,36,45.972 ,137,13.536 ,,,,,
2004/6/24,9:40,0,5,36,45.978 ,137,13.542 ,0.01 ,15.71 ,45.0 ,0.05 ,0.10 
2004/6/24,9:45,0,5,36,46.008 ,137,13.530 ,0.03 ,59.84 ,338.2 ,0.20 ,0.39 
2004/6/24,9:50,0,5,36,46.038 ,137,13.518 ,0.03 ,59.84 ,338.2 ,0.20 ,0.39 
2004/6/24,9:55,0,5,36,46.080 ,137,13.494 ,0.05 ,89.59 ,330.3 ,0.30 ,0.58 
2004/6/24,10:00,0,5,36,46.110 ,137,13.464 ,0.04 ,78.57 ,315.0 ,0.26 ,0.51 
2004/6/24,10:05,0,5,36,46.140 ,137,13.422 ,0.05 ,95.59 ,305.5 ,0.32 ,0.62 
2004/6/24,10:10,0,5,36,46.170 ,137,13.374 ,0.06 ,104.83 ,302.0 ,0.35 ,0.68 
2004/6/24,10:15,0,5,36,46.206 ,137,13.320 ,0.06 ,120.19 ,303.7 ,0.40 ,0.78 
2004/6/24,10:20,0,5,36,46.230 ,137,13.260 ,0.06 ,119.68 ,291.8 ,0.40 ,0.78 
2004/6/24,10:25,0,5,36,46.254 ,137,13.188 ,0.08 ,140.56 ,288.4 ,0.47 ,0.91 
2004/6/24,10:30,0,5,36,46.278 ,137,13.122 ,0.07 ,130.06 ,290.0 ,0.43 ,0.84 
2004/6/24,10:35,0,5,36,46.284 ,137,13.044 ,0.08 ,144.88 ,274.4 ,0.48 ,0.94 
2004/6/24,10:40,0,5,36,46.308 ,137,12.972 ,0.08 ,140.56 ,288.4 ,0.47 ,0.91 
2004/6/24,10:45,0,5,36,46.326 ,137,12.900 ,0.07 ,137.45 ,284.0 ,0.46 ,0.89 
2004/6/24,10:50,0,5,36,46.350 ,137,12.852 ,0.05 ,99.39 ,296.6 ,0.33 ,0.64 
2004/6/24,10:55,0,5,36,46.374 ,137,12.804 ,0.05 ,99.39 ,296.6 ,0.33 ,0.64 
2004/6/24,11:00,0,5,36,46.398 ,137,12.768 ,0.04 ,80.13 ,303.7 ,0.27 ,0.52 
2004/6/24,11:05,0,5,36,46.416 ,137,12.732 ,0.04 ,74.54 ,296.6 ,0.25 ,0.48 
2004/6/24,11:10,0,5,36,46.422 ,137,12.678 ,0.05 ,100.62 ,276.3 ,0.34 ,0.65 
2004/6/24,11:15,0,5,36,46.440 ,137,12.642 ,0.04 ,74.54 ,296.6 ,0.25 ,0.48 
2004/6/24,11:20,0,5,36,46.464 ,137,12.606 ,0.04 ,80.13 ,303.7 ,0.27 ,0.52 
2004/6/24,11:25,0,5,36,46.476 ,137,12.570 ,0.04 ,70.28 ,288.4 ,0.23 ,0.46 
2004/6/24,11:30,0,5,36,46.494 ,137,12.534 ,0.04 ,74.54 ,296.6 ,0.25 ,0.48 
2004/6/24,11:35,0,5,36,46.518 ,137,12.492 ,0.05 ,89.59 ,299.7 ,0.30 ,0.58 
2004/6/24,11:40,0,5,36,46.536 ,137,12.462 ,0.03 ,64.79 ,301.0 ,0.22 ,0.42 
2004/6/24,11:45,0,5,36,46.572 ,137,12.426 ,0.05 ,94.29 ,315.0 ,0.31 ,0.61 
2004/6/24,11:50,0,5,36,46.578 ,137,12.396 ,0.03 ,56.66 ,281.3 ,0.19 ,0.37 
2004/6/24,11:55,0,5,36,46.620 ,137,12.348 ,0.06 ,118.12 ,311.2 ,0.39 ,0.77 
,,,,,,,,,,,,
,,,,,,,,,,,,
�C,Time,Time int.,,Lat.,,Long.,,Distance,,Direction,Speed,
Date(yy/mm/dd),(hh:mm),(hour),(min),(deg),(min),(deg),(min),(miles),(meter),(deg),(m/s),(knots)
2004/6/24,13:10,,,36,46.056 ,137,13.392 ,,,,,
2004/6/24,13:15,0,5,36,46.056 ,137,13.338 ,0.05 ,100.01 ,270.0 ,0.33 ,0.65 
2004/6/24,13:20,0,5,36,46.098 ,137,13.320 ,0.05 ,84.63 ,336.8 ,0.28 ,0.55 
2004/6/24,13:30,0,10,36,46.116 ,137,13.236 ,0.09 ,159.10 ,282.1 ,0.27 ,0.52 
2004/6/24,13:35,0,5,36,46.128 ,137,13.188 ,0.05 ,91.63 ,284.0 ,0.31 ,0.59 
2004/6/24,13:40,0,5,36,46.116 ,137,13.134 ,0.06 ,102.45 ,257.5 ,0.34 ,0.66 
2004/6/24,13:45,0,5,36,46.122 ,137,13.092 ,0.04 ,78.57 ,278.1 ,0.26 ,0.51 
2004/6/24,13:50,0,5,36,46.104 ,137,13.038 ,0.06 ,105.42 ,251.6 ,0.35 ,0.68 
2004/6/24,13:55,0,5,36,46.110 ,137,13.002 ,0.04 ,67.59 ,279.5 ,0.23 ,0.44 
2004/6/24,14:00,0,5,36,46.092 ,137,12.954 ,0.05 ,94.94 ,249.4 ,0.32 ,0.62 
2004/6/24,14:05,0,5,36,46.092 ,137,12.906 ,0.05 ,88.90 ,270.0 ,0.30 ,0.58 
2004/6/24,14:10,0,5,36,46.086 ,137,12.852 ,0.05 ,100.62 ,263.7 ,0.34 ,0.65 
2004/6/24,14:15,0,5,36,46.068 ,137,12.822 ,0.03 ,64.79 ,239.0 ,0.22 ,0.42 
2004/6/24,14:20,0,5,36,46.062 ,137,12.774 ,0.05 ,89.59 ,262.9 ,0.30 ,0.58 
2004/6/24,14:25,0,5,36,46.056 ,137,12.738 ,0.04 ,67.59 ,260.5 ,0.23 ,0.44 
2004/6/24,14:30,0,5,36,46.050 ,137,12.696 ,0.04 ,78.57 ,261.9 ,0.26 ,0.51 
2004/6/24,14:35,0,5,36,46.050 ,137,12.648 ,0.05 ,88.90 ,270.0 ,0.30 ,0.58 
2004/6/24,14:40,0,5,36,46.038 ,137,12.618 ,0.03 ,59.84 ,248.2 ,0.20 ,0.39 
